Flag for Australia

Past Weather in Ceduna, South Australia, Australia — Yesterday and Last 2 Weeks

Now
56 °F

Refreshingly cool.


Feels Like: 52 °F
Forecast: 59 / 48 °F
Wind: 14 mph from Southwest

Location: Ceduna Airport
Current Time: Sep 25, 2020 at 5:51:30 pm
Latest Report: Sep 25, 2020 at 4:30 pm
Visibility: N/A
Pressure30.14 "Hg
Humidity: 55%
Dew Point: 40 °F
Location of CedunaLocation

Past Weather in Ceduna — Graph

°F

Ceduna Temperature Yesterday

Maximum temperature yesterday: 64 °F (at 12:30 pm)
Minimum temperature yesterday: 53 °F (at 10:30 pm)
Average temperature yesterday: 57 °F

High & Low Weather Summary for the Past Weeks

 TemperatureHumidityPressure
High94 °F (Sep 10, 4:30 pm)98% (Sep 19, 4:30 am)30.47 "Hg (Sep 19, 4:30 am)
Low37 °F (Sep 14, 6:00 am)16% (Sep 10, 4:30 pm)29.57 "Hg (Sep 20, 7:30 am)
Average61 °F69%30.04 "Hg
* Reported Sep 10 4:30 pm — Sep 25 4:30 pm, Ceduna. Weather by CustomWeather, © 2020

Note: Actual official high and low records may vary slightly from our data, if they occured in-between our weather recording intervals... More about our weather records

Ceduna Weather History for the Previous 24 Hours

Scroll right to see more
 ConditionsComfort  
Time TempWeatherWind HumidityBarometerVisibility
4:30 pm
Fri, Sep 25
56 °FRefreshingly cool.14 mph55%30.14 "HgN/A
3:30 pm58 °FRefreshingly cool.15 mph49%30.12 "HgN/A
3:00 pm57 °FPassing clouds.16 mph52%30.12 "HgN/A
1:30 pm59 °FRefreshingly cool.15 mph47%30.13 "HgN/A
12:30 pm58 °FRefreshingly cool.16 mph55%30.12 "HgN/A
12:00 pm58 °FPassing clouds.17 mph56%30.13 "HgN/A
11:30 am58 °FRefreshingly cool.15 mph54%30.13 "HgN/A
10:30 am54 °FCool.13 mph67%30.13 "HgN/A
9:30 am54 °FCool.18 mph57%30.12 "HgN/A
9:00 am50 °FOvercast.16 mph64%30.12 "HgN/A
8:30 am49 °FCool.21 mph71%30.11 "HgN/A
7:30 am52 °FCool.18 mph60%30.07 "HgN/A
6:30 am50 °FCool.17 mph63%30.04 "HgN/A
6:00 am51 °FScattered clouds.22 mph65%30.03 "HgN/A
5:30 am50 °FCool.21 mph66%30.01 "HgN/A
4:30 am48 °FCool.23 mph82%30.00 "HgN/A
3:30 am50 °FCool.26 mph74%29.98 "HgN/A
3:00 am50 °FPassing clouds.26 mph72%29.98 "HgN/A
2:30 am51 °FCool.22 mph78%29.98 "HgN/A
1:30 am52 °FCool.21 mph70%29.99 "HgN/A
12:30 am53 °FCool.24 mph69%29.99 "HgN/A
11:30 pm
Thu, Sep 24
53 °FCool.22 mph86%29.99 "HgN/A
10:30 pm53 °FCool.24 mph91%30.00 "HgN/A
9:30 pm53 °FCool.20 mph92%30.00 "HgN/A
9:00 pm56 °FOvercast.17 mph74%29.99 "HgN/A
8:30 pm56 °FCool.16 mph77%30.00 "HgN/A
7:30 pm57 °FCool.18 mph72%30.00 "HgN/A
6:30 pm57 °FCool.20 mph71%30.00 "HgN/A
5:30 pm57 °FCool.15 mph80%30.00 "HgN/A
Weather by CustomWeather, © 2020

See weather overview